Location: Sungai Bunut
(2.6333°N, 113.7333°E)
Time: 11:07:47
(UTC+00:00)

Cosmos 2074 Rocket - Pass Details

Date: 16 October 2021
Orbit: 966 x 987 km, 82.9° (Epoch: 28 November)

Event Time Altitude Azimuth Distance (km) Brightness Sun altitude
Exits shadow 20:39:32 29° 330° (NNW) 1,703 4.9 -22.9°
Maximum altitude 20:42:35 54° 267° (W) 1,165 4.0 -22.1°
Drops below altitude 10° 20:48:36 10° 191° (S) 2,706 6.3 -20.6°
Sets 20:51:10 0° 187° (S) 3,652 7.0 -20.0°
